| time (UTC) | temp C | wind direction | speed KPH | gust KPH | rain 1hr cm | rain 24hr cm | rain mn cm | humidity % | barometer mb |
| 20260504050503 | 10 | 191 | 0.0 | 0.0 | 0.00 | 0.10 | 0.00 | 75 | 1005.5 |
| 20260504050006 | 10 | 191 | 0.0 | 0.0 | 0.00 | 0.10 | 0.00 | 72 | 1005.5 |
| 20260504045503 | 10 | 191 | 0.0 | 0.0 | 0.00 | 0.10 | 0.10 | 74 | 1005.5 |
| 20260504045005 | 10 | 191 | 0.0 | 0.0 | 0.00 | 0.10 | 0.10 | 74 | 1005.4 |
| 20260504044511 | 10 | 191 | 0.0 | 0.0 | 0.00 | 0.10 | 0.10 | 74 | 1005.4 |
| 20260504044006 | 10 | 191 | 0.0 | 0.0 | 0.00 | 0.10 | 0.10 | 76 | 1005.4 |
| 20260504043504 | 10 | 191 | 0.0 | 3.2 | 0.00 | 0.10 | 0.10 | 76 | 1005.4 |
| 20260504043012 | 10 | 191 | 0.0 | 3.2 | 0.00 | 0.10 | 0.10 | 76 | 1005.4 |
| 20260504042504 | 10 | 191 | 0.0 | 3.2 | 0.00 | 0.10 | 0.10 | 77 | 1005.4 |
| 20260504042004 | 10 | 191 | 0.0 | 0.0 | 0.00 | 0.10 | 0.10 | 77 | 1005.4 |
| 20260504041508 | 10 | 191 | 0.0 | 0.0 | 0.00 | 0.10 | 0.10 | 76 | 1005.4 |
| 20260504041003 | 10 | 191 | 0.0 | 0.0 | 0.00 | 0.10 | 0.10 | 74 | 1005.4 |
| 20260504040503 | 11 | 191 | 0.0 | 0.0 | 0.00 | 0.10 | 0.10 | 74 | 1005.4 |
| 20260504040011 | 11 | 191 | 0.0 | 0.0 | 0.00 | 0.10 | 0.10 | 74 | 1005.4 |
| 20260504035503 | 11 | 191 | 0.0 | 0.0 | 0.00 | 0.10 | 0.10 | 73 | 1005.4 |
| 20260504035003 | 11 | 191 | 0.0 | 0.0 | 0.00 | 0.10 | 0.10 | 73 | 1005.4 |
| 20260504034510 | 11 | 191 | 0.0 | 0.0 | 0.00 | 0.10 | 0.10 | 73 | 1005.4 |
| 20260504034004 | 11 | 191 | 0.0 | 0.0 | 0.00 | 0.10 | 0.10 | 73 | 1005.4 |
| 20260504033504 | 12 | 191 | 0.0 | 0.0 | 0.00 | 0.10 | 0.10 | 72 | 1005.4 |
| 20260504033012 | 12 | 191 | 0.0 | 0.0 | 0.00 | 0.10 | 0.10 | 72 | 1005.4 |
| 20260504032504 | 12 | 191 | 0.0 | 0.0 | 0.00 | 0.10 | 0.10 | 70 | 1005.4 |
| 20260504032004 | 12 | 191 | 0.0 | 0.0 | 0.00 | 0.10 | 0.10 | 69 | 1005.4 |
| 20260504031511 | 12 | 191 | 0.0 | 0.0 | 0.00 | 0.10 | 0.10 | 67 | 1005.4 |
| 20260504031004 | 13 | 191 | 0.0 | 0.0 | 0.00 | 0.10 | 0.10 | 67 | 1005.4 |
| 20260504030504 | 13 | 191 | 0.0 | 0.0 | 0.00 | 0.10 | 0.10 | 66 | 1005.2 |
| 20260504030014 | 13 | 191 | 0.0 | 0.0 | 0.00 | 0.10 | 0.10 | 66 | 1005.3 |
| 20260504025504 | 13 | 191 | 0.0 | 0.0 | 0.00 | 0.10 | 0.10 | 66 | 1005.3 |
| 20260504025006 | 13 | 191 | 0.0 | 0.0 | 0.00 | 0.10 | 0.10 | 65 | 1005.2 |
| 20260504024509 | 14 | 191 | 0.0 | 0.0 | 0.00 | 0.10 | 0.10 | 64 | 1005.3 |
| 20260504024003 | 14 | 191 | 0.0 | 0.0 | 0.00 | 0.10 | 0.10 | 63 | 1005.2 |
| 20260504023504 | 15 | 191 | 0.0 | 0.0 | 0.00 | 0.10 | 0.10 | 61 | 1005.3 |
| 20260504023012 | 15 | 191 | 0.0 | 0.0 | 0.00 | 0.10 | 0.10 | 61 | 1005.2 |
| 20260504022508 | 15 | 191 | 0.0 | 0.0 | 0.00 | 0.10 | 0.10 | 59 | 1005.2 |
| 20260504022004 | 16 | 191 | 0.0 | 3.2 | 0.00 | 0.10 | 0.10 | 58 | 1005.2 |
| 20260504021513 | 16 | 191 | 0.0 | 3.2 | 0.00 | 0.10 | 0.10 | 58 | 1005.1 |
| 20260504021004 | 16 | 192 | 0.0 | 4.8 | 0.00 | 0.10 | 0.10 | 57 | 1005.1 |
| 20260504020504 | 16 | 205 | 1.6 | 4.8 | 0.00 | 0.10 | 0.10 | 57 | 1005.1 |
| 20260504020013 | 16 | 239 | 1.6 | 4.8 | 0.00 | 0.10 | 0.10 | 57 | 1005.1 |
| 20260504015504 | 16 | 269 | 1.6 | 4.8 | 0.00 | 0.10 | 0.10 | 55 | 1005.0 |
| 20260504015004 | 17 | 261 | 0.0 | 3.2 | 0.00 | 0.10 | 0.10 | 55 | 1005.0 |
| 20260504014514 | 17 | 217 | 0.0 | 3.2 | 0.00 | 0.10 | 0.10 | 54 | 1004.9 |
| 20260504014003 | 17 | 217 | 0.0 | 3.2 | 0.00 | 0.10 | 0.10 | 53 | 1004.9 |
| 20260504013503 | 17 | 212 | 0.0 | 3.2 | 0.00 | 0.10 | 0.10 | 52 | 1004.8 |
| 20260504013018 | 18 | 213 | 0.0 | 9.7 | 0.00 | 0.10 | 0.10 | 51 | 1004.7 |
| 20260504012504 | 18 | 199 | 1.6 | 9.7 | 0.00 | 0.10 | 0.10 | 50 | 1004.6 |
| 20260504012005 | 18 | 188 | 3.2 | 9.7 | 0.00 | 0.10 | 0.10 | 49 | 1004.5 |
| 20260504011507 | 18 | 245 | 1.6 | 12.9 | 0.00 | 0.10 | 0.10 | 48 | 1004.6 |
| 20260504011007 | 18 | 251 | 1.6 | 12.9 | 0.00 | 0.10 | 0.10 | 48 | 1004.5 |
| 20260504010505 | 18 | 250 | 1.6 | 6.4 | 0.00 | 0.10 | 0.10 | 46 | 1004.5 |
| 20260504010014 | 19 | 240 | 3.2 | 8.0 | 0.00 | 0.10 | 0.10 | 46 | 1004.4 |
| 20260504005504 | 19 | 221 | 1.6 | 12.9 | 0.00 | 0.10 | 0.10 | 45 | 1004.3 |
| 20260504005004 | 19 | 215 | 1.6 | 12.9 | 0.00 | 0.10 | 0.10 | 46 | 1004.3 |
| 20260504004531 | 20 | 161 | 3.2 | 9.7 | 0.00 | 0.10 | 0.10 | 47 | 1004.3 |
| 20260504004003 | 20 | 227 | 0.0 | 3.2 | 0.00 | 0.10 | 0.10 | 46 | 1004.3 |
| 20260504003505 | 20 | 227 | 0.0 | 3.2 | 0.00 | 0.10 | 0.10 | 45 | 1004.3 |
| 20260504003005 | 21 | 227 | 0.0 | 3.2 | 0.00 | 0.10 | 0.10 | 44 | 1004.3 |
| 20260504002504 | 21 | 227 | 0.0 | 3.2 | 0.00 | 0.10 | 0.10 | 43 | 1004.3 |
| 20260504002005 | 21 | 238 | 0.0 | 3.2 | 0.00 | 0.10 | 0.10 | 41 | 1004.3 |
| 20260504001512 | 21 | 211 | 0.0 | 3.2 | 0.00 | 0.10 | 0.10 | 39 | 1004.3 |
| 20260504001005 | 21 | 224 | 0.0 | 4.8 | 0.00 | 0.10 | 0.10 | 40 | 1004.4 |
| 20260504000504 | 21 | 242 | 1.6 | 4.8 | 0.00 | 0.10 | 0.10 | 40 | 1004.4 |
| 20260504000004 | 21 | 184 | 1.6 | 4.8 | 0.00 | 0.10 | 0.10 | 39 | 1004.4 |
| 20260503235504 | 21 | 257 | 0.0 | 4.8 | 0.00 | 0.10 | 0.10 | 39 | 1004.4 |
| 20260503235003 | 21 | 204 | 1.6 | 4.8 | 0.00 | 0.10 | 0.10 | 39 | 1004.4 |
| 20260503234518 | 22 | 226 | 1.6 | 6.4 | 0.00 | 0.10 | 0.10 | 40 | 1004.4 |
| 20260503234005 | 22 | 232 | 1.6 | 11.3 | 0.00 | 0.10 | 0.10 | 40 | 1004.4 |
| 20260503233504 | 22 | 252 | 3.2 | 11.3 | 0.00 | 0.10 | 0.10 | 39 | 1004.4 |
| 20260503233014 | 22 | 182 | 3.2 | 11.3 | 0.00 | 0.10 | 0.10 | 37 | 1004.3 |
| 20260503232506 | 22 | 236 | 3.2 | 9.7 | 0.00 | 0.10 | 0.10 | 38 | 1004.4 |
| 20260503232002 | 22 | 191 | 1.6 | 11.3 | 0.00 | 0.10 | 0.10 | 38 | 1004.4 |
| 20260503231512 | 22 | 256 | 4.8 | 11.3 | 0.00 | 0.10 | 0.10 | 38 | 1004.4 |
| 20260503231004 | 21 | 186 | 1.6 | 12.9 | 0.00 | 0.10 | 0.10 | 38 | 1004.4 |
| 20260503230506 | 21 | 215 | 6.4 | 12.9 | 0.00 | 0.10 | 0.10 | 39 | 1004.5 |
| 20260503230007 | 22 | 204 | 3.2 | 12.9 | 0.00 | 0.10 | 0.10 | 38 | 1004.5 |
| 20260503225503 | 22 | 260 | 6.4 | 12.9 | 0.00 | 0.10 | 0.10 | 37 | 1004.6 |
| 20260503225003 | 22 | 173 | 3.2 | 12.9 | 0.00 | 0.10 | 0.10 | 39 | 1004.5 |
| 20260503224507 | 22 | 255 | 4.8 | 17.7 | 0.00 | 0.10 | 0.10 | 37 | 1004.7 |
| 20260503224002 | 22 | 188 | 3.2 | 17.7 | 0.00 | 0.10 | 0.10 | 37 | 1004.7 |
| 20260503223505 | 22 | 241 | 4.8 | 14.5 | 0.00 | 0.10 | 0.10 | 38 | 1004.8 |
| 20260503223007 | 21 | 227 | 4.8 | 16.1 | 0.00 | 0.10 | 0.10 | 38 | 1004.9 |
| 20260503222505 | 21 | 180 | 4.8 | 16.1 | 0.00 | 0.10 | 0.10 | 37 | 1004.9 |
| 20260503222003 | 21 | 180 | 6.4 | 16.1 | 0.00 | 0.10 | 0.10 | 39 | 1004.9 |
| 20260503221504 | 21 | 163 | 6.4 | 20.9 | 0.00 | 0.10 | 0.10 | 37 | 1004.9 |
| 20260503221006 | 22 | 212 | 6.4 | 20.9 | 0.00 | 0.10 | 0.10 | 36 | 1005.0 |
| 20260503220505 | 22 | 241 | 6.4 | 16.1 | 0.00 | 0.10 | 0.10 | 36 | 1004.9 |
| 20260503220012 | 22 | 301 | 6.4 | 27.4 | 0.00 | 0.10 | 0.10 | 38 | 1004.9 |
| 20260503215504 | 21 | 186 | 6.4 | 27.4 | 0.00 | 0.10 | 0.10 | 37 | 1004.9 |
| 20260503215003 | 21 | 170 | 4.8 | 16.1 | 0.00 | 0.10 | 0.10 | 39 | 1004.8 |
| 20260503214529 | 21 | 263 | 8.0 | 22.5 | 0.00 | 0.10 | 0.10 | 37 | 1004.9 |
| 20260503214003 | 21 | 252 | 4.8 | 22.5 | 0.00 | 0.10 | 0.10 | 39 | 1004.9 |
| 20260503213503 | 21 | 183 | 6.4 | 17.7 | 0.00 | 0.10 | 0.10 | 38 | 1004.9 |
| 20260503213027 | 21 | 217 | 8.0 | 22.5 | 0.00 | 0.10 | 0.10 | 39 | 1004.9 |
| 20260503212504 | 21 | 176 | 9.7 | 22.5 | 0.00 | 0.10 | 0.10 | 39 | 1004.9 |
| 20260503212006 | 21 | 192 | 8.0 | 19.3 | 0.00 | 0.10 | 0.10 | 38 | 1005.1 |
| 20260503211516 | 21 | 227 | 6.4 | 20.9 | 0.00 | 0.10 | 0.10 | 38 | 1005.1 |
| 20260503211003 | 21 | 290 | 8.0 | 20.9 | 0.00 | 0.10 | 0.10 | 39 | 1005.2 |
| 20260503210509 | 21 | 250 | 9.7 | 20.9 | 0.00 | 0.10 | 0.10 | 37 | 1005.2 |
| 20260503210017 | 21 | 265 | 6.4 | 22.5 | 0.00 | 0.10 | 0.10 | 39 | 1005.2 |
| 20260503205503 | 21 | 280 | 11.3 | 22.5 | 0.00 | 0.10 | 0.10 | 38 | 1005.4 |
| 20260503205010 | 21 | 279 | 6.4 | 12.9 | 0.00 | 0.10 | 0.10 | 42 | 1005.4 |
| 20260503204514 | 21 | 248 | 4.8 | 19.3 | 0.00 | 0.10 | 0.10 | 40 | 1005.4 |
| 20260503204003 | 21 | 182 | 6.4 | 19.3 | 0.00 | 0.10 | 0.10 | 42 | 1005.5 |
| 20260503203508 | 20 | 177 | 4.8 | 29.0 | 0.00 | 0.10 | 0.10 | 41 | 1005.6 |
| 20260503203011 | 20 | 237 | 9.7 | 29.0 | 0.00 | 0.10 | 0.10 | 41 | 1005.7 |
| 20260503202511 | 20 | 209 | 9.7 | 19.3 | 0.00 | 0.10 | 0.10 | 42 | 1005.7 |
| 20260503202006 | 20 | 202 | 6.4 | 32.2 | 0.00 | 0.10 | 0.10 | 41 | 1005.8 |
| 20260503201504 | 20 | 172 | 6.4 | 32.2 | 0.00 | 0.10 | 0.10 | 43 | 1005.9 |
| 20260503201004 | 19 | 217 | 4.8 | 29.0 | 0.00 | 0.10 | 0.10 | 46 | 1006.0 |
| 20260503200504 | 19 | 228 | 8.0 | 29.0 | 0.00 | 0.10 | 0.10 | 42 | 1006.1 |
| 20260503200003 | 19 | 229 | 8.0 | 24.1 | 0.00 | 0.10 | 0.10 | 43 | 1006.1 |
| 20260503195508 | 19 | 208 | 9.7 | 29.0 | 0.00 | 0.10 | 0.10 | 42 | 1006.2 |
| 20260503195003 | 19 | 214 | 14.5 | 29.0 | 0.00 | 0.10 | 0.10 | 43 | 1006.3 |
| 20260503194522 | 19 | 217 | 8.0 | 25.7 | 0.00 | 0.10 | 0.10 | 44 | 1006.4 |
| 20260503194003 | 19 | 157 | 6.4 | 27.4 | 0.00 | 0.10 | 0.10 | 44 | 1006.4 |
| 20260503193504 | 18 | 275 | 12.9 | 30.6 | 0.00 | 0.10 | 0.10 | 42 | 1006.5 |
| 20260503193020 | 18 | 189 | 9.7 | 33.8 | 0.00 | 0.10 | 0.10 | 47 | 1006.6 |
| 20260503192504 | 18 | 181 | 9.7 | 29.0 | 0.00 | 0.10 | 0.10 | 42 | 1006.6 |
| 20260503192002 | 18 | 204 | 9.7 | 30.6 | 0.00 | 0.10 | 0.10 | 42 | 1006.7 |
| 20260503191514 | 18 | 219 | 11.3 | 30.6 | 0.00 | 0.10 | 0.10 | 47 | 1006.9 |
| 20260503191004 | 18 | 214 | 6.4 | 24.1 | 0.00 | 0.10 | 0.10 | 48 | 1007.0 |
| 20260503190507 | 18 | 150 | 9.7 | 24.1 | 0.00 | 0.10 | 0.10 | 46 | 1007.1 |
| 20260503190016 | 18 | 211 | 9.7 | 22.5 | 0.00 | 0.10 | 0.10 | 46 | 1007.2 |
| 20260503185504 | 17 | 159 | 12.9 | 22.5 | 0.00 | 0.10 | 0.10 | 45 | 1007.3 |
| 20260503185004 | 18 | 173 | 9.7 | 22.5 | 0.00 | 0.10 | 0.10 | 45 | 1007.3 |
| 20260503184512 | 17 | 200 | 8.0 | 27.4 | 0.00 | 0.10 | 0.10 | 44 | 1007.4 |
| 20260503184003 | 17 | 218 | 12.9 | 27.4 | 0.00 | 0.10 | 0.10 | 46 | 1007.5 |
| 20260503183506 | 17 | 186 | 8.0 | 25.7 | 0.00 | 0.10 | 0.10 | 46 | 1007.4 |
| 20260503183007 | 17 | 186 | 11.3 | 25.7 | 0.00 | 0.10 | 0.10 | 45 | 1007.6 |
| 20260503182509 | 17 | 169 | 14.5 | 25.7 | 0.00 | 0.10 | 0.10 | 46 | 1007.6 |
| 20260503182005 | 17 | 229 | 12.9 | 24.1 | 0.00 | 0.10 | 0.10 | 44 | 1007.8 |
| 20260503181517 | 17 | 205 | 8.0 | 32.2 | 0.00 | 0.10 | 0.10 | 45 | 1007.9 |
| 20260503181008 | 17 | 169 | 12.9 | 27.4 | 0.00 | 0.10 | 0.10 | 47 | 1008.0 |
| 20260503180505 | 17 | 213 | 11.3 | 29.0 | 0.00 | 0.10 | 0.10 | 44 | 1008.2 |
| 20260503180014 | 17 | 171 | 8.0 | 29.0 | 0.00 | 0.10 | 0.10 | 47 | 1008.1 |
| 20260503175511 | 17 | 197 | 3.2 | 27.4 | 0.00 | 0.10 | 0.10 | 46 | 1008.1 |
| 20260503175004 | 17 | 232 | 8.0 | 32.2 | 0.00 | 0.10 | 0.10 | 49 | 1008.2 |
| 20260503174523 | 17 | 178 | 11.3 | 33.8 | 0.00 | 0.10 | 0.10 | 45 | 1008.0 |
| 20260503174005 | 17 | 180 | 14.5 | 40.2 | 0.00 | 0.10 | 0.10 | 48 | 1008.2 |
| 20260503173503 | 17 | 171 | 9.7 | 40.2 | 0.00 | 0.10 | 0.10 | 48 | 1008.2 |
| 20260503173020 | 16 | 181 | 14.5 | 32.2 | 0.00 | 0.10 | 0.10 | 46 | 1008.1 |
| 20260503172507 | 16 | 185 | 16.1 | 37.0 | 0.00 | 0.10 | 0.10 | 48 | 1008.3 |
| 20260503172002 | 16 | 181 | 16.1 | 37.0 | 0.00 | 0.10 | 0.10 | 51 | 1008.3 |
| 20260503171524 | 16 | 195 | 12.9 | 30.6 | 0.00 | 0.10 | 0.10 | 51 | 1008.5 |
| 20260503171004 | 16 | 178 | 16.1 | 33.8 | 0.00 | 0.10 | 0.10 | 53 | 1008.6 |
| 20260503170508 | 15 | 201 | 12.9 | 32.2 | 0.00 | 0.10 | 0.10 | 56 | 1008.6 |
| 20260503151005 | 10 | 181 | 11.3 | 24.1 | 0.00 | 0.10 | 0.10 | 65 | 1010.2 |
| 20260503150510 | 10 | 159 | 9.7 | 25.7 | 0.00 | 0.10 | 0.10 | 67 | 1010.4 |
| 20260503131003 | 8 | 153 | 6.4 | 19.3 | 0.00 | 0.00 | 0.00 | 76 | 1012.6 |
| 20260503130507 | 9 | 170 | 6.4 | 16.1 | 0.00 | 0.00 | 0.00 | 76 | 1012.7 |
| 20260503110516 | 7 | 183 | 1.6 | 11.3 | 0.00 | 0.00 | 0.00 | 63 | 1012.3 |
| 20260503090504 | 7 | 199 | 3.2 | 11.3 | 0.00 | 0.00 | 0.00 | 58 | 1012.8 |
| 20260503081512 | 7 | 216 | 3.2 | 9.7 | 0.00 | 0.00 | 0.00 | 57 | 1013.1 |
| 20260503081003 | 7 | 198 | 4.8 | 9.7 | 0.00 | 0.00 | 0.00 | 56 | 1013.1 |
| 20260503080507 | 7 | 169 | 3.2 | 8.0 | 0.00 | 0.00 | 0.00 | 56 | 1013.2 |
| 20260503072508 | 7 | 227 | 3.2 | 12.9 | 0.00 | 0.00 | 0.00 | 56 | 1013.3 |
| 20260503072005 | 7 | 199 | 1.6 | 9.7 | 0.00 | 0.00 | 0.00 | 56 | 1013.5 |
| 20260503071505 | 7 | 173 | 1.6 | 12.9 | 0.00 | 0.00 | 0.00 | 56 | 1013.5 |
| 20260503071006 | 7 | 219 | 3.2 | 12.9 | 0.00 | 0.00 | 0.00 | 56 | 1013.5 |
| 20260503070504 | 7 | 200 | 3.2 | 9.7 | 0.00 | 0.00 | 0.00 | 55 | 1013.5 |